RH
100 100 100 100 100 100 100 95 72 66 53 36 40 43 45 42 39 45 64 65 47 51 57 46 38 34 32 36 47 41 25 16 10 6 5 4 5 4 4 5 6 6 8 14 18
100 100 100 100 100 100 90 66 53 44 38 36 43 46 47 53 55 60 64 57 48 53 53 48 39 32 31 32 44 48 35 20 11 7 5 4 4 5 4 4 5 6 6 11 13
100 100 100 99 90 76 56 53 32 29 29 46 43 44 46 51 54 62 73 64 60 67 56 50 38 33 28 35 43 50 39 26 13 8 5 4 4 4 5 5 4 5 6 7 11
100 98 93 83 67 56 51 32 25 29 47 44 46 41 42 46 55 67 62 65 63 61 62 49 37 32 27 31 42 54 45 25 16 9 6 5 3 3 4 6 5 4 5 6 7
91 87 72 66 55 52 39 31 39 47 37 40 42 43 45 62 70 70 72 75 69 59 60 55 40 30 29 28 36 48 50 32 19 12 7 5 4 4 4 4 5 5 4 5 6
80 61 52 56 53 42 32 58 35 33 44 52 52 46 50 64 74 75 82 78 63 66 63 52 39 30 29 25 30 41 52 47 26 16 8 6 4 4 3 3 5 6 5 5 6
44 40 35 46 40 34 52 37 33 50 54 56 53 51 60 63 76 76 86 74 77 68 51 45 34 28 28 25 29 40 47 50 33 20 10 7 4 4 3 4 3 5 6 5 5
47 40 34 40 40 52 50 34 42 55 54 60 61 62 67 72 75 87 82 78 68 59 47 38 32 28 29 26 32 44 50 50 48 27 12 10 6 4 4 4 4 6 6 6 5
39 42 36 46 53 48 31 46 52 54 58 62 70 77 81 75 87 85 76 76 62 47 41 37 33 30 28 26 33 45 53 51 54 41 17 12 7 4 3 4 4 4 6 6 6
30 46 41 53 65 39 49 56 50 51 62 72 81 85 85 85 88 79 75 74 58 47 45 33 31 32 27 25 32 43 54 55 47 40 29 15 8 5 3 3 4 4 4 7 8
32 47 51 65 42 57 55 46 49 62 67 79 84 80 81 96 81 70 73 65 65 51 47 35 32 33 26 26 32 42 58 67 49 35 35 18 9 6 3 3 3 4 4 4 9
45 57 64 56 51 48 48 51 69 77 77 74 70 74 92 95 76 72 72 67 66 59 51 36 38 33 29 27 34 41 51 66 63 43 26 30 12 7 4 2 3 3 4 4 6
57 62 58 55 50 53 56 67 82 85 72 68 85 90 90 88 79 74 68 69 65 58 57 43 38 37 30 30 32 41 47 59 68 67 30 34 17 8 5 3 3 3 3 4 5
61 69 63 54 57 62 74 86 80 74 72 85 94 98 90 84 81 70 77 73 63 55 53 50 34 33 37 32 33 42 48 60 70 66 53 31 22 12 8 4 3 3 3 3 4
61 55 52 47 56 67 70 67 69 82 84 97 97 91 92 74 69 79 67 56 52 55 54 52 36 36 41 40 37 43 51 57 71 73 60 36 21 11 8 6 3 3 3 3 3
62 53 50 52 54 60 66 74 92 95 96 94 90 84 83 74 78 74 72 57 53 60 59 54 38 40 43 48 41 44 52 57 75 76 70 42 30 17 9 7 4 3 3 3 3
73 74 67 67 72 76 78 96 99 89 86 89 88 85 80 75 92 80 70 67 63 56 62 55 47 46 45 48 45 44 49 56 72 74 95 52 52 18 9 7 5 3 3 3 3
80 81 84 80 84 82 88 100 76 75 77 82 82 82 82 75 83 73 67 70 68 67 62 66 69 46 44 45 53 44 48 58 61 74 81 81 57 28 12 7 6 4 3 3 3
88 92 84 85 83 82 82 73 70 76 89 91 80 78 83 91 78 60 72 74 75 79 73 69 75 53 45 45 59 51 50 63 64 73 68 78 57 54 23 10 6 4 4 3 3
85 82 80 81 84 82 80 66 69 76 83 90 71 61 60 71 68 64 67 74 73 79 73 52 58 68 51 49 60 66 51 62 66 62 60 80 53 53 51 17 8 6 4 3 3
72 73 81 82 77 74 76 70 85 96 89 83 67 58 63 76 84 80 65 75 77 71 66 51 62 72 58 47 56 72 54 60 65 61 69 62 56 59 43 31 10 7 5 4 3
75 78 85 75 65 64 70 73 88 96 84 74 73 67 58 71 90 88 73 83 85 70 65 62 62 74 66 55 60 73 54 60 70 64 82 66 66 72 54 39 20 8 6 4 3
59 57 57 54 56 69 85 85 92 99 89 86 92 85 63 84 93 79 82 88 98 82 62 60 66 70 68 59 56 75 60 65 77 72 94 69 69 66 60 44 26 11 7 4 4
58 60 64 63 71 76 77 84 98 100 100 100 100 97 85 90 95 72 89 97 99 83 66 60 72 68 71 66 62 82 69 80 84 78 79 80 74 68 59 45 27 12 8 5 3
100 92 92 80 90 95 93 97 100 100 100 100 98 100 100 100 97 79 95 100 98 96 87 55 69 61 77 64 64 82 73 91 90 81 78 93 74 74 52 40 26 14 8 6 4
100 100 100 93 98 92 94 100 100 100 100 100 100 100 100 100 100 94 95 100 100 100 84 75 64 56 67 61 66 76 98 89 96 86 81 82 80 63 53 41 30 14 8 8 6
100 100 88 81 95 97 100 100 100 100 100 100 100 100 100 100 100 100 100 100 100 100 91 98 67 53 54 61 63 90 100 100 100 99 77 84 76 59 59 52 32 16 10 8 6
Wind_Speed
30 31 34 37 39 39 38 39 42 44 39 34 25 20 23 26 30 33 37 41 44 49 51 55 59 66 66 69 72 68 65 71 75 69 52 65 85 100 121 126 124 118 116 116 114
31 34 37 38 39 38 41 42 40 39 34 27 22 21 25 28 32 36 39 43 46 50 53 57 62 66 67 69 70 73 69 71 78 74 52 55 76 94 114 127 131 129 118 124 118
35 36 35 36 38 39 40 42 39 32 26 22 21 25 28 32 36 38 41 46 51 53 56 59 62 65 71 71 71 73 70 69 77 74 55 47 64 88 95 119 136 136 134 128 127
34 36 38 38 39 36 37 37 25 19 18 19 24 27 30 34 37 40 43 47 51 53 55 57 62 66 68 73 74 71 71 66 72 75 66 43 54 79 91 101 130 136 141 130 131
37 38 38 38 38 35 33 20 13 14 16 21 25 29 34 36 39 44 47 52 54 56 57 61 63 65 68 71 75 76 69 66 68 73 69 44 46 65 90 95 125 134 141 142 132
40 39 39 38 33 30 20 16 15 13 17 23 28 32 35 39 42 46 50 55 58 58 59 61 63 65 70 73 76 75 76 68 64 69 69 51 40 54 83 92 105 131 140 140 139
37 36 34 29 23 22 18 17 15 16 21 26 31 35 37 41 44 49 54 57 60 60 60 62 65 66 69 75 78 80 80 76 68 65 64 55 36 47 66 87 103 118 138 141 146
40 32 21 18 21 19 18 19 19 21 27 30 33 36 40 44 48 53 55 56 58 60 61 64 65 66 68 73 80 84 85 77 71 66 65 55 52 38 53 68 93 111 137 141 148
44 33 21 19 19 19 20 19 21 25 28 31 35 39 43 47 50 54 55 56 58 60 63 65 65 67 69 75 81 86 86 82 78 72 63 62 52 46 43 60 75 108 120 141 146
30 31 22 19 22 20 22 22 25 26 29 34 37 42 47 49 53 52 52 56 61 62 64 65 64 67 72 78 81 87 89 91 82 73 71 65 52 47 44 49 71 86 116 130 140
22 21 21 20 19 20 21 22 25 28 32 37 41 44 47 49 50 50 50 55 62 65 68 70 70 72 71 79 83 89 93 92 90 75 77 70 57 44 45 43 59 80 98 122 138
17 18 17 17 17 18 19 23 27 31 36 40 42 45 47 48 49 52 54 59 64 68 70 71 73 74 75 79 86 90 93 95 98 89 72 79 62 47 41 38 51 67 88 109 132
11 11 12 14 16 19 23 27 31 35 39 43 45 47 47 49 52 54 58 61 66 70 71 73 74 77 78 80 87 93 96 98 100 98 80 83 72 50 41 38 41 56 75 95 121
13 14 15 17 20 24 27 31 35 39 43 45 48 48 49 51 54 57 61 65 68 72 72 74 76 79 82 81 85 92 96 99 103 103 97 82 73 61 47 37 38 49 62 83 105
18 19 21 23 25 28 32 37 40 44 46 46 46 49 51 55 59 62 65 68 70 72 75 78 80 81 84 85 85 91 94 99 103 106 105 90 78 64 53 35 35 43 58 69 90
22 23 26 29 31 34 38 42 45 48 47 48 48 51 55 58 62 64 68 71 73 74 76 79 80 82 84 87 86 89 93 98 100 106 109 98 87 75 61 42 31 36 51 65 77
26 29 31 33 35 37 41 44 47 48 47 47 51 54 58 61 64 68 71 73 76 75 76 79 80 82 82 86 88 91 93 96 98 103 110 109 100 81 66 49 34 31 41 56 70
31 33 37 38 40 43 44 46 48 47 49 51 54 58 60 64 67 70 72 76 77 76 77 79 80 83 85 88 88 91 95 100 102 104 105 115 107 92 76 59 39 30 35 47 60
35 39 41 43 46 46 48 49 48 48 52 56 59 61 63 68 71 74 77 78 79 77 79 80 80 85 86 90 93 94 98 99 102 102 104 109 103 102 89 69 50 34 32 39 52
41 45 46 48 49 51 51 50 50 53 56 59 63 65 68 71 75 77 80 80 82 81 82 82 81 84 88 90 93 98 102 103 104 105 106 108 105 104 101 81 58 40 34 35 44
47 49 52 54 55 56 55 54 55 56 59 64 67 70 71 73 78 80 82 83 84 85 84 83 81 84 89 91 93 98 102 103 105 107 111 109 112 110 104 94 69 49 33 34 40
50 53 56 58 57 56 55 58 60 61 64 68 71 75 76 78 79 81 84 88 86 86 84 83 83 86 91 93 95 100 104 105 106 108 110 112 114 111 109 100 85 58 40 32 36
54 56 57 57 58 60 61 63 66 68 70 72 76 79 79 77 85 84 85 87 86 88 85 83 85 89 91 95 98 101 105 106 106 109 109 114 118 114 112 102 90 67 49 35 32
59 60 60 61 63 65 67 69 75 74 73 78 80 84 81 80 87 86 87 88 87 89 89 89 88 93 96 101 101 103 106 106 107 110 107 113 115 118 115 107 91 72 53 38 33
66 65 66 64 68 71 73 73 77 81 79 82 81 85 84 83 86 87 90 90 90 91 93 92 93 97 96 100 100 101 107 108 109 112 111 109 117 115 115 106 92 74 53 43 33
72 74 73 72 74 76 77 79 82 86 85 84 85 86 84 87 91 91 91 91 90 92 94 95 99 100 99 103 102 101 108 110 109 113 114 115 116 116 115 109 96 75 56 45 35
79 81 81 74 77 78 78 83 83 87 86 88 87 89 90 93 95 95 96 94 94 93 96 98 104 105 102 105 103 101 107 109 110 113 118 118 120 119 116 112 98 79 60 46 39
Wind_Direction
271 274 276 276 279 284 286 289 289 289 289 290 277 284 305 309 306 310 318 321 319 320 322 321 321 322 325 326 328 322 315 311 313 313 286 248 234 228 225 225 225 229 226 222 224
272 272 273 276 283 282 289 291 291 288 283 277 269 290 306 309 312 314 318 320 320 320 320 321 321 325 328 329 328 330 327 321 316 316 301 256 236 232 220 221 225 224 225 223 223
273 275 279 280 283 289 294 294 290 279 268 258 275 282 301 307 312 315 318 320 320 319 321 322 323 325 329 332 332 336 333 329 322 321 318 273 239 232 227 218 219 221 221 222 221
277 277 279 281 286 292 296 297 282 259 243 262 282 293 299 305 311 317 321 317 319 320 319 320 321 325 333 333 334 339 338 335 329 326 323 290 249 230 227 221 216 219 220 222 224
276 280 283 284 289 294 293 279 246 243 263 283 292 296 301 308 315 317 319 319 318 319 321 319 320 324 331 331 336 340 346 345 337 331 327 304 261 236 228 224 217 216 219 220 222
279 280 282 286 288 284 268 247 262 281 292 293 296 302 307 309 313 316 319 319 318 321 321 320 321 326 331 332 334 342 346 353 347 336 330 313 274 248 230 224 220 216 216 218 220
276 279 277 278 272 268 240 253 275 286 290 293 300 304 307 311 313 317 320 320 322 325 324 324 324 326 331 333 336 343 347 353 349 343 334 315 288 254 245 228 222 218 216 217 218
274 272 267 260 263 232 244 260 273 285 290 297 301 306 309 313 316 320 320 320 322 323 325 327 327 330 334 337 340 347 349 353 351 347 338 327 301 262 245 235 227 219 217 216 216
261 251 255 258 233 238 250 267 280 286 294 300 304 306 310 315 317 319 321 324 326 328 330 330 331 331 334 338 343 348 353 355 357 352 344 335 316 291 257 236 229 222 218 218 216
237 233 239 235 233 249 265 273 279 289 297 303 308 311 312 315 318 322 324 327 329 331 333 333 333 335 337 339 343 348 352 355 0 358 350 342 330 301 278 246 232 224 221 217 217
203 215 225 225 240 256 266 274 284 291 302 306 309 312 313 315 320 324 325 328 330 331 333 332 336 337 339 341 343 349 352 357 359 357 357 348 339 315 293 263 237 229 223 219 215
186 197 218 240 254 266 276 284 289 299 304 308 310 312 312 318 320 323 324 328 329 330 331 332 335 336 340 342 342 345 351 356 358 358 359 354 348 328 303 277 249 232 226 220 218
190 217 245 262 264 270 281 290 298 302 306 310 311 313 315 318 319 319 324 328 328 328 330 332 334 336 339 342 342 345 350 353 357 360 357 358 347 337 316 286 260 242 229 223 221
230 249 261 267 272 282 289 294 298 302 310 314 313 313 314 317 318 320 323 325 325 326 328 330 333 336 339 342 343 345 349 352 353 357 359 357 352 348 335 304 269 246 237 227 222
248 260 270 280 285 290 295 300 306 310 313 310 309 309 311 313 315 319 321 323 325 325 328 330 332 334 339 341 343 344 347 351 353 356 357 358 353 348 340 316 283 254 239 233 225
263 273 284 289 292 295 301 306 308 309 308 308 307 308 310 312 315 318 320 322 324 326 329 329 331 333 338 339 342 343 347 350 353 353 355 359 353 350 346 330 297 264 246 235 230
268 278 284 288 293 298 301 304 305 305 305 305 306 308 309 312 316 319 321 323 323 325 329 329 330 331 336 336 340 344 347 348 352 353 354 356 357 349 348 339 317 276 252 239 230
274 281 285 288 293 296 300 301 302 301 301 303 305 307 309 313 316 318 320 321 322 325 328 328 329 328 334 335 338 343 344 346 351 351 355 351 357 351 349 343 328 295 266 245 233
276 281 284 288 290 296 299 300 300 299 300 302 303 306 310 312 313 316 318 319 322 324 326 326 327 327 331 334 336 341 342 344 346 349 353 351 356 355 351 346 335 312 280 256 241
275 279 283 289 293 296 298 296 296 296 298 299 302 306 308 310 312 315 318 319 321 323 324 324 325 326 330 332 335 336 340 342 343 348 350 352 355 354 353 348 338 324 295 267 249
278 284 288 289 292 293 293 293 295 295 297 300 304 305 307 310 311 315 316 318 320 320 322 322 324 325 328 330 333 334 337 340 342 345 346 351 349 351 352 350 342 330 306 277 257
283 283 284 287 289 291 293 293 295 296 298 300 302 304 307 310 311 313 315 317 318 318 320 319 323 323 325 328 331 332 334 337 339 342 343 347 345 348 349 349 343 334 316 284 260
278 281 284 286 289 290 291 293 293 295 297 298 300 302 306 309 308 312 314 316 316 316 318 318 321 320 324 326 330 331 332 334 337 338 341 343 343 347 346 348 345 335 321 297 265
282 283 285 286 287 288 289 291 292 294 296 297 299 300 304 306 306 310 312 315 313 313 314 316 319 320 324 325 329 330 330 332 335 335 339 339 341 342 342 345 344 336 325 304 274
283 283 283 283 286 287 288 290 289 292 295 296 298 299 301 304 304 309 311 312 312 312 312 314 317 319 322 323 327 331 329 330 333 332 335 337 337 338 341 342 341 336 327 309 283
280 282 282 286 286 286 287 286 289 291 294 294 296 297 300 304 306 308 309 309 308 309 310 313 314 317 321 322 325 330 327 329 331 330 332 333 334 336 339 340 339 336 328 313 290
280 281 283 284 286 287 287 288 288 290 294 296 297 299 301 303 304 306 306 306 307 307 309 311 311 314 318 320 323 326 323 325 329 328 330 330 331 332 335 337 337 334 328 316 296